Location: Newark
(45.5000°N, 11.4167°E)
Time: 15:46:57
(UTC+00:00)

Explorer 11/Cluster Stage 4 - Pass Details

Date: 24 August 2019
Orbit: 467 x 1260 km, 28.8° (Epoch: 17 September)

Event Time Altitude Azimuth Distance (km) Brightness Sun altitude
Rises 11:12:36 0° 242° (WSW) 4,175 10.5 55.6°
Reaches altitude 10° 11:16:12 10° 229° (SW) 3,230 10.2 55.6°
Maximum altitude 11:22:16 23° 181° (S) 2,359 10.2 55.6°
Drops below altitude 10° 11:28:07 10° 133° (SE) 3,090 10.1 55.5°
Sets 11:31:27 0° 120° (ESE) 3,953 10.4 55.5°
